TANDEM X

Satellite information

Favourite Embed

Satellite Type and Status

PAYLOADIN ORBIT

Key statistics

Satellite TANDEM X at a glance.

Uptime

5495

Days in orbit

Revolutions

≈ 15.2

Per day

Orbit

SSO

Sun Synchronous Orbit

Inclination

97.4

Latest

Satellite identification and parameters

Extended collection of information and parameters for TANDEM X.

Object identification

Identified? True

Debris? False

Object name: TANDEM X

International designator: 2010-030A

Object number (NORAD): 36605

Object ID (CCSDS): 36605

Country: GERMANY (GER)

Current information (Y/N): Y

RCS size: LARGE

Orbital parameters

Period: 94.79 minutes

Inclination: 97.4464 deg

SMA: 6886.539 km

Apoapsis: 509.616 km

Periapsis: 507.191 km

RAAN: 195.2324 deg

Eccentricy: 0.0001761

Argument of periapsis: 98.8911 deg

Mean anomaly: 261.2523 deg

Mean motion: 15.191522 rev/day

Mean motion (dot): 0.00000395 rev/day2

B* drag term: 0.000022006 1/REarth

Two-line elements (TLE)

Creation date: July 6, 2025, 10:56 p.m.

Reference frame: TEME

Reference center: EARTH

Epoch: July 6, 2025, 1:56 p.m. UTC

TLE line 0: 0 TANDEM X

TLE line 1: 1 36605U 10030A 25187.58090145 .00000395 00000-0 22006-4 0 9990

TLE line 2: 2 36605 97.4464 195.2324 0001761 98.8911 261.2523 15.19152200834162

Live tracking on map

Real-time ground track for satellite TANDEM X.

In-orbit conjunctions

There are no conjunctions computed for TANDEM X, at the moment. Check back to stay up to date, as we update our databases every day.

Go to all conjunctions

Associated space launch

TANDEM X was lifted into orbit during the mission ‘Dnepr 1 | TanDEM-X’, on board a Dnepr space rocket.

The launch took place on June 21, 2010, 2:14 a.m. from 109/95.

For more information about the launch, click the button.

Launch to space Dnepr 1 | TanDEM-X
Dnepr 1 | TanDEM-X

Agency: N/A

Status: Launch Successful

Launch date: June 21, 2010, 2:14 a.m. UTC

Rocket: Dnepr

Launch pad: 109/95

Location: Baikonur Cosmodrome, Republic of Kazakhstan

...

Latest news about this satellite

There are no fresh news available about this satellite. Check back as we update our databases every day.


Newsletter sign-up

Weekly statistics, charts and insights to help you stay on top of the space industry.